Roberts International Airport

Jump to: basic info | weather | frequencies | runways | comments

Related pages: nearby airports | nearby navaids | notams | map

Basic information (top)

Codes: ROB GLRB
Location: lon 6.233790, lat -10.362300, elev 31 ft / 9 m msl
Status: medium_airport
Scheduled airline service: yes
Links: Wikipedia Mobile

Weather (top)

Current conditions (rec'd 2015/01/25 22:00Z):

GLRB 252200Z 00000KT 9999 FEW014 26/25 Q1011 NOSIG

Airport forecast (rec'd 2015/01/25 18:51Z):

TAF GLRB 251600Z 2518/2624 24009KT 9999 SCT020 
      BECMG 2520/2522 00000KT 9999 FEW015 
     FM260000 00000KT 9000 NSC 
      TEMPO 2604/2608 05004KT 5000 BR SCT004 BKN013

Frequencies (top)

Verify before use: may be inaccurate or out of date.

A/G: 345.2 MHz (A/G VOICE RDO)
APP: 124.5 MHz (ROBERTS APP)
GND: 121.9 MHz (GND)
TWR: 118.3 MHz (ROBERTS TWR)

Runways (top)

04/22: 11,000 x 150 ft (3,353 x 46 m) — paved — lighted — threshold 22 displaced 1,200 ft (366 m)

Latest comments (top)

No comments yet for Roberts International Airport

More... (top)

See also NOTAMs and nearby airports and navaids, or visit the Roberts International Airport page at the main OurAirports website..